Time,TemperatureF,DewpointF,PressureIn,WindDirection,WindDirectionDegrees,WindSpeedMPH,WindSpeedGustMPH,Humidity,HourlyPrecipIn,Conditions,Clouds,dailyrainin,SoftwareType,DateUTC
2013-07-06 10:05:00,70.0,51.0,28.67,SSE,158,0.0,0.0,51,0.00,,,0.00,VWS V14.01,2013-07-06 15:05:00,
2013-07-06 10:06:00,70.0,51.6,28.67,SSE,158,0.0,0.0,52,0.00,,,0.00,VWS V14.01,2013-07-06 15:06:00,
2013-07-06 10:08:00,70.0,51.6,28.67,SSE,158,0.0,0.0,52,0.00,,,0.00,VWS V14.01,2013-07-06 15:08:00,
2013-07-06 10:09:00,70.0,51.6,28.67,SSE,158,0.0,0.0,52,0.00,,,0.00,VWS V14.01,2013-07-06 15:09:00,
2013-07-06 10:10:00,69.8,51.9,28.67,SSE,158,0.0,0.0,53,0.00,,,0.00,VWS V14.01,2013-07-06 15:10:00,
2013-07-06 10:12:00,69.8,51.9,28.67,SSE,158,0.0,0.0,53,0.00,,,0.00,VWS V14.01,2013-07-06 15:12:00,
2013-07-06 10:14:00,69.8,51.9,28.67,SSE,158,0.0,0.0,53,0.00,,,0.00,VWS V14.01,2013-07-06 15:14:00,
2013-07-06 10:16:00,69.8,51.9,28.67,SW,225,0.0,0.0,53,0.00,,,0.00,VWS V14.01,2013-07-06 15:16:00,
2013-07-06 10:18:00,69.8,51.9,28.67,SW,225,0.0,0.0,53,0.00,,,0.00,VWS V14.01,2013-07-06 15:18:00,
2013-07-06 10:19:00,69.8,51.9,28.67,SW,225,0.0,0.0,53,0.00,,,0.00,VWS V14.01,2013-07-06 15:19:00,
2013-07-06 10:20:00,69.8,52.4,29.71,SW,225,0.0,0.0,54,0.00,,,0.00,VWS V14.01,2013-07-06 15:20:00,
2013-07-06 10:22:00,69.8,53.4,29.71,SW,225,0.0,0.0,56,0.00,,,0.00,VWS V14.01,2013-07-06 15:22:00,
2013-07-06 10:24:00,69.8,53.4,29.71,SW,225,0.0,0.0,56,0.00,,,0.00,VWS V14.01,2013-07-06 15:24:00,
2013-07-06 10:26:00,69.6,53.7,29.71,SW,225,0.0,0.0,57,0.00,,,0.00,VWS V14.01,2013-07-06 15:26:00,
2013-07-06 10:28:00,69.4,54.5,29.71,SW,225,0.0,0.0,59,0.00,,,0.00,VWS V14.01,2013-07-06 15:28:00,
2013-07-06 10:29:00,69.6,54.2,29.71,SW,225,0.0,0.0,58,0.00,,,0.00,VWS V14.01,2013-07-06 15:29:00,
2013-07-06 10:30:00,69.4,55.0,29.71,SW,225,4.7,4.7,60,0.00,,,0.00,VWS V14.01,2013-07-06 15:30:00,
2013-07-06 10:32:00,69.4,55.0,29.71,SW,225,4.7,4.7,60,0.00,,,0.00,VWS V14.01,2013-07-06 15:32:00,
2013-07-06 10:34:00,69.4,55.0,29.71,SW,225,4.7,4.7,60,0.00,,,0.00,VWS V14.01,2013-07-06 15:34:00,
2013-07-06 10:36:00,69.6,56.0,29.71,SW,225,4.7,4.7,62,0.00,,,0.00,VWS V14.01,2013-07-06 15:36:00,
2013-07-06 10:38:00,69.4,56.8,29.71,SW,225,4.7,4.7,64,0.00,,,0.00,VWS V14.01,2013-07-06 15:38:00,
2013-07-06 10:39:00,69.6,56.5,29.71,SW,225,4.7,4.7,63,0.00,,,0.00,VWS V14.01,2013-07-06 15:39:00,
2013-07-06 10:40:00,69.4,57.2,29.71,SW,225,4.7,4.7,65,0.00,,,0.00,VWS V14.01,2013-07-06 15:40:00,
2013-07-06 10:42:00,69.3,57.0,29.71,SW,225,4.7,4.7,65,0.00,,,0.00,VWS V14.01,2013-07-06 15:42:00,
2013-07-06 10:44:00,69.3,57.0,29.71,SW,225,4.7,4.7,65,0.00,,,0.00,VWS V14.01,2013-07-06 15:44:00,
2013-07-06 10:46:00,69.3,57.4,29.71,SW,225,4.7,4.7,66,0.00,,,0.00,VWS V14.01,2013-07-06 15:46:00,
2013-07-06 10:48:00,69.3,57.8,29.71,South,180,2.7,2.7,67,0.00,,,0.00,VWS V14.01,2013-07-06 15:48:00,
2013-07-06 10:49:00,69.3,57.4,29.71,South,180,2.7,2.7,66,0.00,,,0.00,VWS V14.01,2013-07-06 15:49:00,
2013-07-06 10:50:00,69.3,57.8,29.71,South,180,2.7,2.7,67,0.00,,,0.00,VWS V14.01,2013-07-06 15:50:00,
2013-07-06 10:52:00,69.3,58.3,29.71,South,180,2.7,2.7,68,0.00,,,0.00,VWS V14.01,2013-07-06 15:52:00,
2013-07-06 10:54:00,69.3,57.8,29.71,South,180,2.7,2.7,67,0.00,,,0.00,VWS V14.01,2013-07-06 15:54:00,
2013-07-06 10:56:00,69.4,58.0,29.71,South,180,2.7,2.7,67,0.00,,,0.00,VWS V14.01,2013-07-06 15:56:00,
2013-07-06 10:58:00,69.6,58.6,29.71,South,180,2.7,2.7,68,0.00,,,0.00,VWS V14.01,2013-07-06 15:58:00,
2013-07-06 10:59:00,69.4,58.0,29.71,South,180,2.7,2.7,67,0.00,,,0.00,VWS V14.01,2013-07-06 15:59:00,
2013-07-06 11:00:00,69.8,58.4,29.71,South,180,2.7,2.7,67,0.00,,,0.00,VWS V14.01,2013-07-06 16:00:00,
2013-07-06 11:02:00,70.0,58.5,29.71,South,180,2.7,2.7,67,0.00,,,0.00,VWS V14.01,2013-07-06 16:02:00,
2013-07-06 11:04:00,70.0,58.5,29.71,South,180,2.7,2.7,67,0.00,,,0.00,VWS V14.01,2013-07-06 16:04:00,
2013-07-06 11:06:00,70.3,58.5,29.71,South,180,2.7,2.7,66,0.00,,,0.00,VWS V14.01,2013-07-06 16:06:00,
2013-07-06 11:08:00,70.5,58.6,29.71,South,180,2.7,2.7,66,0.00,,,0.00,VWS V14.01,2013-07-06 16:08:00,
2013-07-06 11:09:00,70.5,58.6,29.71,South,180,2.7,2.7,66,0.00,,,0.00,VWS V14.01,2013-07-06 16:09:00,
2013-07-06 11:10:00,70.7,58.4,29.71,South,180,2.7,2.7,65,0.00,,,0.00,VWS V14.01,2013-07-06 16:10:00,
2013-07-06 11:12:00,70.9,58.5,29.71,South,180,2.7,2.7,65,0.00,,,0.00,VWS V14.01,2013-07-06 16:12:00,
2013-07-06 11:14:00,70.9,58.5,29.71,South,180,2.7,2.7,65,0.00,,,0.00,VWS V14.01,2013-07-06 16:14:00,
2013-07-06 11:16:00,71.1,58.3,29.71,South,180,2.7,2.7,64,0.00,,,0.00,VWS V14.01,2013-07-06 16:16:00,
2013-07-06 11:18:00,71.2,58.0,29.71,South,180,2.7,2.7,63,0.00,,,0.00,VWS V14.01,2013-07-06 16:18:00,
2013-07-06 11:19:00,71.2,58.5,29.71,South,180,2.7,2.7,64,0.00,,,0.00,VWS V14.01,2013-07-06 16:19:00,
2013-07-06 11:20:00,71.2,58.5,29.71,South,180,2.7,2.7,64,0.00,,,0.00,VWS V14.01,2013-07-06 16:20:00,
2013-07-06 11:22:00,71.4,58.6,29.71,South,180,2.7,2.7,64,0.00,,,0.00,VWS V14.01,2013-07-06 16:22:00,
2013-07-06 11:24:00,71.4,58.6,29.71,South,180,2.7,2.7,64,0.00,,,0.00,VWS V14.01,2013-07-06 16:24:00,
2013-07-06 11:26:00,71.6,57.9,29.71,South,180,2.7,2.7,62,0.00,,,0.00,VWS V14.01,2013-07-06 16:26:00,
2013-07-06 11:28:00,71.6,57.5,29.71,South,180,2.7,2.7,61,0.00,,,0.00,VWS V14.01,2013-07-06 16:28:00,
2013-07-06 11:29:00,71.6,57.9,29.71,South,180,2.7,2.7,62,0.00,,,0.00,VWS V14.01,2013-07-06 16:29:00,
2013-07-06 11:30:00,71.8,57.6,29.71,South,180,2.7,2.7,61,0.00,,,0.00,VWS V14.01,2013-07-06 16:30:00,
2013-07-06 11:32:00,72.0,57.8,29.71,South,180,2.7,2.7,61,0.00,,,0.00,VWS V14.01,2013-07-06 16:32:00,
2013-07-06 11:34:00,72.0,57.8,29.71,South,180,2.7,2.7,61,0.00,,,0.00,VWS V14.01,2013-07-06 16:34:00,
2013-07-06 11:36:00,72.5,57.8,29.71,South,180,2.7,2.7,60,0.00,,,0.00,VWS V14.01,2013-07-06 16:36:00,
2013-07-06 11:38:00,72.9,58.2,29.71,South,180,2.7,2.7,60,0.00,,,0.00,VWS V14.01,2013-07-06 16:38:00,
2013-07-06 11:39:00,72.7,58.0,29.71,South,180,2.7,2.7,60,0.00,,,0.00,VWS V14.01,2013-07-06 16:39:00,
2013-07-06 11:40:00,72.9,58.2,29.71,South,180,2.7,2.7,60,0.00,,,0.00,VWS V14.01,2013-07-06 16:40:00,
2013-07-06 11:42:00,73.0,57.9,29.71,South,180,2.7,2.7,59,0.00,,,0.00,VWS V14.01,2013-07-06 16:42:00,
2013-07-06 11:44:00,73.0,57.9,29.71,South,180,2.7,2.7,59,0.00,,,0.00,VWS V14.01,2013-07-06 16:44:00,
2013-07-06 11:46:00,73.4,57.3,29.71,South,180,2.7,2.7,57,0.00,,,0.00,VWS V14.01,2013-07-06 16:46:00,
2013-07-06 11:48:00,73.2,56.6,29.71,South,180,2.7,2.7,56,0.00,,,0.00,VWS V14.01,2013-07-06 16:48:00,
2013-07-06 11:49:00,73.2,56.6,29.71,South,180,2.7,2.7,56,0.00,,,0.00,VWS V14.01,2013-07-06 16:49:00,
2013-07-06 11:50:00,73.4,56.3,29.71,South,180,2.7,2.7,55,0.00,,,0.00,VWS V14.01,2013-07-06 16:50:00,
2013-07-06 11:52:00,73.2,56.1,29.71,South,180,2.7,2.7,55,0.00,,,0.00,VWS V14.01,2013-07-06 16:52:00,
2013-07-06 11:54:00,73.4,56.3,29.71,South,180,2.7,2.7,55,0.00,,,0.00,VWS V14.01,2013-07-06 16:54:00,
2013-07-06 11:56:00,73.4,55.8,29.71,South,180,2.7,2.7,54,0.00,,,0.00,VWS V14.01,2013-07-06 16:56:00,
2013-07-06 11:58:00,73.6,55.9,29.71,South,180,2.7,2.7,54,0.00,,,0.00,VWS V14.01,2013-07-06 16:58:00,
2013-07-06 11:59:00,73.6,55.9,29.71,South,180,2.7,2.7,54,0.00,,,0.00,VWS V14.01,2013-07-06 16:59:00,
2013-07-06 12:00:00,73.8,55.1,29.71,South,180,2.7,2.7,52,0.00,,,0.00,VWS V14.01,2013-07-06 17:00:00,
2013-07-06 12:02:00,73.8,55.1,29.71,South,180,2.7,2.7,52,0.00,,,0.00,VWS V14.01,2013-07-06 17:02:00,
2013-07-06 12:04:00,73.8,55.1,29.71,South,180,2.7,2.7,52,0.00,,,0.00,VWS V14.01,2013-07-06 17:04:00,
2013-07-06 12:06:00,73.9,55.2,29.71,South,180,2.7,2.7,52,0.00,,,0.00,VWS V14.01,2013-07-06 17:06:00,
2013-07-06 12:08:00,74.1,55.4,29.71,South,180,2.7,2.7,52,0.00,,,0.00,VWS V14.01,2013-07-06 17:08:00,
2013-07-06 12:09:00,74.1,55.4,29.71,South,180,2.7,2.7,52,0.00,,,0.00,VWS V14.01,2013-07-06 17:09:00,
2013-07-06 12:10:00,74.3,55.0,29.71,South,180,2.7,2.7,51,0.00,,,0.00,VWS V14.01,2013-07-06 17:10:00,
2013-07-06 12:12:00,74.5,55.2,29.71,South,180,2.7,2.7,51,0.00,,,0.00,VWS V14.01,2013-07-06 17:12:00,
2013-07-06 12:14:00,74.7,55.3,29.71,South,180,2.7,2.7,51,0.00,,,0.00,VWS V14.01,2013-07-06 17:14:00,
2013-07-06 12:16:00,75.0,55.1,29.71,South,180,2.7,2.7,50,0.00,,,0.00,VWS V14.01,2013-07-06 17:16:00,
2013-07-06 12:18:00,75.4,55.5,29.71,South,180,2.7,2.7,50,0.00,,,0.00,VWS V14.01,2013-07-06 17:18:00,
2013-07-06 12:19:00,75.4,55.5,29.71,South,180,2.7,2.7,50,0.00,,,0.00,VWS V14.01,2013-07-06 17:19:00,
2013-07-06 12:20:00,75.6,55.1,29.71,SE,135,4.7,4.7,49,0.00,,,0.00,VWS V14.01,2013-07-06 17:20:00,
2013-07-06 12:22:00,75.6,53.9,29.71,SE,135,4.7,4.7,47,0.00,,,0.00,VWS V14.01,2013-07-06 17:22:00,
2013-07-06 12:24:00,75.6,53.9,29.71,SE,135,4.7,4.7,47,0.00,,,0.00,VWS V14.01,2013-07-06 17:24:00,
2013-07-06 12:26:00,76.1,53.8,29.71,SE,135,4.7,4.7,46,0.00,,,0.00,VWS V14.01,2013-07-06 17:26:00,
2013-07-06 12:28:00,76.3,54.0,29.71,SE,135,4.7,4.7,46,0.00,,,0.00,VWS V14.01,2013-07-06 17:28:00,
2013-07-06 12:29:00,76.3,54.0,29.71,SE,135,4.7,4.7,46,0.00,,,0.00,VWS V14.01,2013-07-06 17:29:00,
2013-07-06 12:30:00,76.3,53.4,29.71,SE,135,4.7,4.7,45,0.00,,,0.00,VWS V14.01,2013-07-06 17:30:00,
2013-07-06 12:32:00,76.3,52.8,29.71,SE,135,4.7,4.7,44,0.00,,,0.00,VWS V14.01,2013-07-06 17:32:00,
2013-07-06 12:34:00,76.3,52.8,29.71,SE,135,4.7,4.7,44,0.00,,,0.00,VWS V14.01,2013-07-06 17:34:00,
2013-07-06 12:35:00,76.3,52.8,29.71,SE,135,4.7,4.7,44,0.00,,,0.00,VWS V14.01,2013-07-06 17:35:00,
2013-07-06 12:36:00,76.1,52.0,29.71,SE,135,4.7,4.7,43,0.00,,,0.00,VWS V14.01,2013-07-06 17:36:00,
2013-07-06 12:38:00,76.5,53.0,29.71,NE,45,0.0,1.6,44,0.00,,,0.00,VWS V14.01,2013-07-06 17:38:00,
2013-07-06 12:40:00,76.3,52.8,29.71,NE,45,0.0,1.6,44,0.00,,,0.00,VWS V14.01,2013-07-06 17:40:00,
2013-07-06 12:42:00,76.5,52.3,29.71,NE,45,0.0,0.0,43,0.00,,,0.00,VWS V14.01,2013-07-06 17:42:00,
2013-07-06 12:44:00,76.3,52.2,29.71,NE,45,0.0,0.0,43,0.00,,,0.00,VWS V14.01,2013-07-06 17:44:00,
2013-07-06 12:45:00,76.5,52.3,29.71,NE,45,0.0,0.0,43,0.00,,,0.00,VWS V14.01,2013-07-06 17:45:00,
2013-07-06 12:46:00,76.3,52.2,29.71,NE,45,0.0,0.0,43,0.00,,,0.00,VWS V14.01,2013-07-06 17:46:00,
2013-07-06 12:48:00,76.3,52.2,29.71,NE,45,0.0,0.0,43,0.00,,,0.00,VWS V14.01,2013-07-06 17:48:00,
2013-07-06 12:50:00,76.3,52.2,29.71,NE,45,0.0,0.0,43,0.00,,,0.00,VWS V14.01,2013-07-06 17:50:00,
2013-07-06 12:52:00,76.1,52.0,29.71,NE,45,0.0,0.0,43,0.00,,,0.00,VWS V14.01,2013-07-06 17:52:00,
2013-07-06 12:54:00,75.9,51.8,29.71,NE,45,0.0,0.0,43,0.00,,,0.00,VWS V14.01,2013-07-06 17:54:00,
2013-07-06 12:55:00,76.1,52.0,29.71,NE,45,0.0,0.0,43,0.00,,,0.00,VWS V14.01,2013-07-06 17:55:00,
2013-07-06 12:56:00,75.9,51.8,29.71,NE,45,0.0,0.0,43,0.00,,,0.00,VWS V14.01,2013-07-06 17:56:00,
2013-07-06 12:58:00,75.7,51.7,29.71,North,0,4.7,4.7,43,0.00,,,0.00,VWS V14.01,2013-07-06 17:58:00,
2013-07-06 13:00:00,75.7,51.7,29.71,North,0,4.7,4.7,43,0.00,,,0.00,VWS V14.01,2013-07-06 18:00:00,
2013-07-06 13:02:00,75.7,52.3,29.71,North,0,4.7,4.7,44,0.00,,,0.00,VWS V14.01,2013-07-06 18:02:00,
2013-07-06 13:04:00,75.7,52.3,29.71,North,0,4.7,4.7,44,0.00,,,0.00,VWS V14.01,2013-07-06 18:04:00,
2013-07-06 13:05:00,75.7,52.3,29.71,North,0,4.7,4.7,44,0.00,,,0.00,VWS V14.01,2013-07-06 18:05:00,
2013-07-06 13:06:00,75.7,52.3,29.71,North,0,4.7,4.7,44,0.00,,,0.00,VWS V14.01,2013-07-06 18:06:00,
2013-07-06 13:08:00,75.7,52.3,29.71,North,0,4.7,4.7,44,0.00,,,0.00,VWS V14.01,2013-07-06 18:08:00,
2013-07-06 13:10:00,75.7,52.3,29.71,North,0,4.7,4.7,44,0.00,,,0.00,VWS V14.01,2013-07-06 18:10:00,
2013-07-06 13:12:00,75.9,52.5,29.71,North,0,4.7,4.7,44,0.00,,,0.00,VWS V14.01,2013-07-06 18:12:00,
2013-07-06 13:14:00,76.3,52.8,29.71,NW,315,4.0,4.0,44,0.00,,,0.00,VWS V14.01,2013-07-06 18:14:00,
2013-07-06 13:15:00,76.1,52.6,29.71,WSW,248,0.0,1.6,44,0.00,,,0.00,VWS V14.01,2013-07-06 18:15:00,
2013-07-06 13:16:00,76.5,52.3,29.71,SSE,158,0.0,1.3,43,0.00,,,0.00,VWS V14.01,2013-07-06 18:16:00,
2013-07-06 13:18:00,76.8,52.7,29.71,SSE,158,0.0,0.0,43,0.00,,,0.00,VWS V14.01,2013-07-06 18:18:00,
2013-07-06 13:20:00,76.8,52.7,29.71,SSE,158,0.0,0.0,43,0.00,,,0.00,VWS V14.01,2013-07-06 18:20:00,
2013-07-06 13:22:00,77.5,52.7,29.71,SSE,158,0.0,0.0,42,0.00,,,0.00,VWS V14.01,2013-07-06 18:22:00,
2013-07-06 13:24:00,78.1,53.8,29.71,SSE,158,0.0,0.0,43,0.00,,,0.00,VWS V14.01,2013-07-06 18:24:00,
2013-07-06 13:25:00,78.1,53.8,29.71,SSE,158,0.0,0.0,43,0.00,,,0.00,VWS V14.01,2013-07-06 18:25:00,
2013-07-06 13:26:00,78.4,53.5,29.71,SSE,158,0.0,0.0,42,0.00,,,0.00,VWS V14.01,2013-07-06 18:26:00,
2013-07-06 13:28:00,78.6,53.0,29.71,SSE,158,0.0,0.0,41,0.00,,,0.00,VWS V14.01,2013-07-06 18:28:00,
2013-07-06 13:30:00,78.8,53.1,29.71,SSE,158,0.0,0.0,41,0.00,,,0.00,VWS V14.01,2013-07-06 18:30:00,
2013-07-06 13:32:00,79.3,53.0,29.71,SSE,158,0.0,0.0,40,0.00,,,0.00,VWS V14.01,2013-07-06 18:32:00,
2013-07-06 13:34:00,79.9,53.4,29.71,SSE,158,0.0,0.0,40,0.00,,,0.00,VWS V14.01,2013-07-06 18:34:00,
2013-07-06 13:35:00,79.5,53.1,29.71,SSE,158,0.0,0.0,40,0.00,,,0.00,VWS V14.01,2013-07-06 18:35:00,
2013-07-06 13:36:00,80.1,52.9,29.71,South,180,3.4,3.4,39,0.00,,,0.00,VWS V14.01,2013-07-06 18:36:00,
2013-07-06 13:38:00,80.2,51.6,29.71,South,180,3.4,3.4,37,0.00,,,0.00,VWS V14.01,2013-07-06 18:38:00,
2013-07-06 13:40:00,80.2,51.6,29.71,South,180,3.4,3.4,37,0.00,,,0.00,VWS V14.01,2013-07-06 18:40:00,
2013-07-06 13:42:00,80.8,51.4,29.71,East,90,0.0,0.0,36,0.00,,,0.00,VWS V14.01,2013-07-06 18:42:00,
2013-07-06 13:44:00,81.1,51.7,29.71,East,90,0.0,0.0,36,0.00,,,0.00,VWS V14.01,2013-07-06 18:44:00,
2013-07-06 13:45:00,81.1,51.7,29.71,East,90,0.0,0.0,36,0.00,,,0.00,VWS V14.01,2013-07-06 18:45:00,
2013-07-06 13:46:00,81.7,51.4,29.71,East,90,0.0,0.0,35,0.00,,,0.00,VWS V14.01,2013-07-06 18:46:00,
2013-07-06 13:48:00,81.7,51.4,29.71,East,90,0.0,0.0,35,0.00,,,0.00,VWS V14.01,2013-07-06 18:48:00,
2013-07-06 13:50:00,81.7,51.4,29.71,East,90,0.0,0.0,35,0.00,,,0.00,VWS V14.01,2013-07-06 18:50:00,
2013-07-06 13:52:00,81.5,51.2,29.71,NNW,338,6.7,6.7,35,0.00,,,0.00,VWS V14.01,2013-07-06 18:52:00,
2013-07-06 13:54:00,81.1,50.1,29.71,WSW,248,0.0,0.0,34,0.00,,,0.00,VWS V14.01,2013-07-06 18:54:00,
2013-07-06 13:55:00,81.3,50.3,29.71,WSW,248,0.0,2.2,34,0.00,,,0.00,VWS V14.01,2013-07-06 18:55:00,
2013-07-06 13:56:00,80.8,49.0,29.71,WSW,248,0.0,0.0,33,0.00,,,0.00,VWS V14.01,2013-07-06 18:56:00,
2013-07-06 13:58:00,80.8,49.0,29.71,WSW,248,0.0,0.0,33,0.00,,,0.00,VWS V14.01,2013-07-06 18:58:00,
2013-07-06 14:00:00,80.8,49.0,29.71,WSW,248,0.0,0.0,33,0.00,,,0.00,VWS V14.01,2013-07-06 19:00:00,
2013-07-06 14:02:00,80.4,50.3,29.71,NNE,22,0.0,0.0,35,0.00,,,0.00,VWS V14.01,2013-07-06 19:02:00,
2013-07-06 14:04:00,80.2,50.1,29.68,NNE,22,0.0,0.0,35,0.00,,,0.00,VWS V14.01,2013-07-06 19:04:00,
2013-07-06 14:05:00,80.4,50.3,29.71,NNE,22,0.0,0.0,35,0.00,,,0.00,VWS V14.01,2013-07-06 19:05:00,
2013-07-06 14:06:00,80.2,50.1,29.68,NNE,22,0.0,0.0,35,0.00,,,0.00,VWS V14.01,2013-07-06 19:06:00,
2013-07-06 14:08:00,80.1,50.0,29.68,NNE,22,0.0,0.0,35,0.00,,,0.00,VWS V14.01,2013-07-06 19:08:00,
2013-07-06 14:10:00,80.2,50.1,29.68,NNE,22,0.0,0.0,35,0.00,,,0.00,VWS V14.01,2013-07-06 19:10:00,
2013-07-06 14:12:00,79.7,49.7,29.68,NNW,338,3.4,3.4,35,0.00,,,0.00,VWS V14.01,2013-07-06 19:12:00,
2013-07-06 14:14:00,79.7,49.7,29.68,NNE,22,0.0,1.1,35,0.00,,,0.00,VWS V14.01,2013-07-06 19:14:00,
2013-07-06 14:15:00,79.7,49.7,29.68,NNE,22,0.0,1.1,35,0.00,,,0.00,VWS V14.01,2013-07-06 19:15:00,
2013-07-06 14:16:00,79.7,49.7,29.68,NNE,22,0.0,0.0,35,0.00,,,0.00,VWS V14.01,2013-07-06 19:16:00,
2013-07-06 14:18:00,79.7,50.4,29.68,NNE,22,0.0,0.0,36,0.00,,,0.00,VWS V14.01,2013-07-06 19:18:00,
2013-07-06 14:20:00,79.7,50.4,29.71,NNE,22,0.0,0.0,36,0.00,,,0.00,VWS V14.01,2013-07-06 19:20:00,